User: anonymous   Login
Location: Fort Wayne
(41.1310°N, 85.1290°W)
Time: 19:32:37
(UTC-05:00)
Language:

Meteor 2-9 Rocket - Orbit

View from above orbital plane
View from above orbital plane
View from above satellite
View from above satellite

Ground track
Ground track

The orbit data is extracted from the following two-line orbital elements,

1 13719U 82116B   15058.59131287  .00000072  00000-0  30268-4 0  9996
2 13719 081.2528 103.7998 0071004 229.9550 283.9860 14.14522217661525
Epoch (UTC): 27 February 2015 14:11:29
Eccentricity: 0.0071004
inclination: 81.2528°
perigee height: 792 km
apogee height: 895 km
right ascension of ascending node: 103.7998°
argument of perigee: 229.9550°
revolutions per day: 14.14522217
mean anomaly at epoch: 283.9860°
orbit number at epoch: 66152

The dashed part of the orbit path shows where the satellite is in the earth's shadow,  

DLR